Terminal Aerodrome Forecast
Issued by NWS

Current Version | Previous Version | Graphics & Text | Print | Product List | Glossary On
Versions: 1 2 3 4 5 6 7 8 9 10 11 12 13 14 15
188
FTUS41 KILN 122249 AAB
TAFLCK
TAF AMD
KLCK 122249Z 1223/1318 28012G22KT 3SM -SHSN OVC022
      TEMPO 1223/1301 29014G30KT 1/2SM SHSN
     FM130200 32015G25KT P6SM -SHSN BKN020
     FM130600 34014G22KT P6SM -SHSN BKN020
     FM131000 34010KT P6SM SCT020 SCT035
     FM131700 32010KT P6SM BKN025=

USA.gov is the U.S. government's official web portal to all federal, state and local government web resources and services.